Ellensburg, WA

8:23 PM PDT on July 20, 2017 (GMT -0700)
Bowers

Weather History for KELN - February, 2014

Change the Weather History Date:

Friday, February 28, 2014

  Actual Average (KYKM) Record (KYKM)
Temperature  
Mean Temperature 38 °F -  
Max Temperature 48 °F 51 °F 65 °F (1972)
Min Temperature 28 °F 28 °F 10 °F (1960)
Degree Days  
Heating Degree Days 27    
Moisture  
Dew Point 27 °F    
Average Humidity 66    
Maximum Humidity 85    
Minimum Humidity 43    
Precipitation  
Precipitation 0.00 in - - ()
Sea Level Pressure  
Sea Level Pressure 29.69 in    
Wind  
Wind Speed 3 mph (ESE)    
Max Wind Speed 17 mph    
Max Gust Speed 21 mph    
Visibility 10 miles    
Events      
Averages and records for this station are not official NWS values.
T = Trace of Precipitation, MM = Missing Value Source: NWS Daily Summary

Daily Weather History Graph

Daily Weather History Graph

Search for Another Location

Airport or City:

Trip Planner

Search our weather history database for the weather conditions in past years. The results will help you decide how hot, cold, wet, or windy it might be!

Date:

Astronomy

Feb. 28, 2014 Rise Set
Actual Time 6:43 AM PST 5:46 PM PST
Civil Twilight 6:13 AM PST 6:16 PM PST
Nautical Twilight 5:37 AM PST 6:52 PM PST
Astronomical Twilight 5:02 AM PST 7:27 PM PST
Moon 6:02 AM PST (2/28) 5:30 PM PST (2/28)
Length of Visible Light 12h 03m
Length of Day
11h 02m
Waning Crescent, 0% of the Moon is Illuminated
Feb 28
Waning Crescent
Mar 1
New
Mar 8
First Quarter
Mar 16
Full
Mar 23
Last Quarter

Hourly Weather History & Observations

Time (PST) Temp. Windchill Dew Point Humidity Pressure Visibility Wind Dir Wind Speed Gust Speed Precip Events Conditions
12:05 AM 32.0 °F - 26.1 °F 79% 29.71 in 10.0 mi Calm Calm - N/A   Scattered Clouds
12:53 AM 30.0 °F - 26.1 °F 85% 29.75 in 10.0 mi Calm Calm - N/A   Clear
1:53 AM 28.9 °F - 25.0 °F 85% 29.75 in 10.0 mi Calm Calm - N/A   Scattered Clouds
2:53 AM 30.9 °F - 26.1 °F 82% 29.74 in 10.0 mi Calm Calm - N/A   Mostly Cloudy
3:53 AM 28.9 °F - 24.1 °F 82% 29.74 in 9.0 mi Calm Calm - N/A   Clear
4:20 AM 30.0 °F 25.2 °F 26.1 °F 85% 29.71 in 10.0 mi NE 4.6 mph - N/A   Mostly Cloudy
4:53 AM 33.1 °F 28.7 °F 28.0 °F 82% 29.74 in 10.0 mi North 4.6 mph - N/A   Overcast
5:53 AM 33.1 °F - 28.0 °F 82% 29.74 in 8.0 mi Calm Calm - N/A   Overcast
6:53 AM 33.1 °F 30.0 °F 28.0 °F 82% 29.75 in 7.0 mi North 3.5 mph - N/A   Overcast
7:53 AM 34.0 °F 28.8 °F 28.9 °F 82% 29.75 in 8.0 mi South 5.8 mph - N/A   Overcast
8:53 AM 36.0 °F 33.3 °F 28.9 °F 76% 29.75 in 8.0 mi East 3.5 mph - N/A   Overcast
9:53 AM 39.0 °F - 28.9 °F 67% 29.75 in 10.0 mi Calm Calm - N/A   Mostly Cloudy
10:53 AM 42.1 °F 40.2 °F 28.0 °F 58% 29.73 in 10.0 mi SW 3.5 mph - N/A   Overcast
11:53 AM 44.1 °F - 30.0 °F 58% 29.71 in 10.0 mi Calm Calm - N/A   Overcast
12:53 PM 46.0 °F - 30.0 °F 54% 29.68 in 10.0 mi Calm Calm - N/A   Mostly Cloudy
1:53 PM 48.0 °F - 28.9 °F 48% 29.65 in 10.0 mi SSW 3.5 mph - N/A   Overcast
2:53 PM 48.9 °F - 28.9 °F 46% 29.63 in 10.0 mi Variable 3.5 mph - N/A   Overcast
3:53 PM 48.9 °F - 27.0 °F 43% 29.62 in 10.0 mi ESE 6.9 mph - N/A   Overcast
4:53 PM 46.9 °F - 30.0 °F 52% 29.60 in 10.0 mi East 9.2 mph - N/A   Overcast
5:53 PM 45.0 °F - 30.0 °F 56% 29.59 in 10.0 mi Calm Calm - N/A   Overcast
6:53 PM 44.1 °F 40.8 °F 25.0 °F 47% 29.60 in 10.0 mi ESE 5.8 mph - N/A   Overcast
7:53 PM 42.1 °F 39.2 °F 26.1 °F 53% 29.61 in 10.0 mi ESE 4.6 mph - N/A   Overcast
8:53 PM 43.0 °F 35.1 °F 24.1 °F 47% 29.62 in 10.0 mi East 17.3 mph 20.7 mph N/A   Overcast
9:53 PM 41.0 °F 33.5 °F 28.9 °F 62% 29.64 in 10.0 mi East 13.8 mph - N/A   Overcast
10:53 PM 39.0 °F 31.0 °F 28.0 °F 65% 29.65 in 10.0 mi SE 13.8 mph - N/A   Overcast
11:53 PM 37.0 °F 28.1 °F 23.0 °F 57% 29.65 in 10.0 mi SE 15.0 mph - N/A   Overcast